Regional Weather Roundup
Issued by NWS

Home | Current Version | Previous Version | Graphics & Text | Print | Product List | Glossary Off
Versions: 1 2 3 4 5 6 7 8 9 10 11 12 13 14 15 16 17 18 19 20 21 22 23 24 25 26 27 28 29 30 31 32 33 34 35 36 37 38 39 40 41 42 43 44 45 46 47 48 49 50

000
ASUS43 KBIS 172010
RWRND

NORTH DAKOTA REGIONAL WEATHER ROUNDUP
NATIONAL WEATHER SERVICE BISMARCK ND
300 PM CDT THU APR 17 2014

NOTE: "FAIR" INDICATES FEW OR NO CLOUDS BELOW 12,000 FEET WITH NO
SIGNIFICANT WEATHER AND/OR OBSTRUCTIONS TO VISIBILITY.


NDZ001>003-009>011-017-172100-
NORTHWEST NORTH DAKOTA

CITY           SKY/WX    TMP DP  RH WIND       PRES   REMARKS
WILLISTON      PTSUNNY   43  24  47 SE17G24   30.10F
MINOT          CLOUDY    40  15  36 SE15      30.20F
MINOT AFB      CLOUDY    40  18  40 SE16      30.20F
$$

NDZ018>021-031>035-040>046-172100-
SOUTHWEST NORTH DAKOTA

CITY           SKY/WX    TMP DP  RH WIND       PRES   REMARKS
BISMARCK       PTSUNNY   45  18  34 S13G25    30.22F
DICKINSON      CLOUDY    36  25  64 SE21G28   30.10F
GARRISON         N/A     41  18  39 S15       30.18F
HETTINGER ARPT PTSUNNY   39  27  62 SE18G26   30.12F
$$

NDZ004>008-012>016-024-026-027-054-172100-
NORTHEAST NORTH DAKOTA

CITY           SKY/WX    TMP DP  RH WIND       PRES   REMARKS
GRAND FORKS    MOSUNNY   41  11  29 NW12      30.32F
GRND FRKS AFB  SUNNY     40  10  28 N8        30.32F
DEVILS LAKE    SUNNY     37   7  28 E7        30.28F
$$

NDZ022-023-025-028>030-036>039-047>053-172100-
SOUTHEAST NORTH DAKOTA

CITY           SKY/WX    TMP DP  RH WIND       PRES   REMARKS
FARGO          SUNNY     43  15  32 W7        30.31S
JAMESTOWN      SUNNY     42  10  27 MISG      30.25F
$$




USA.gov is the U.S. government's official web portal to all federal, state and local government web resources and services.